Location: Nitra
(0.0000°N, 18.0833°E)
Time: 06:03:58
(UTC+01:00)

Cosmos 405 - Pass Details

Date: 24 January 2021
Orbit: 448 x 462 km, 81.3° (Epoch: 04 March)

Event Time Altitude Azimuth Distance (km) Brightness Sun altitude
Exits shadow 18:36:15 - 32° (NNE) 1,940 5.7 -8.6°
Reaches altitude 10° 18:37:24 10° 44° (NE) 1,591 5.1 -8.9°
Maximum altitude 18:39:41 17° 85° (E) 1,243 4.5 -9.4°
Drops below altitude 10° 18:41:57 10° 126° (SE) 1,590 5.3 -9.9°
Sets 18:44:35 0° 148° (SSE) 2,462 6.5 -10.6°
